Theta_e
325 324 324 323 324 324 324 325 325 325 325 325 323 323 322 321 321 314 304 311 315 326 321 311 310 310 312 310 311 310 302 300 301 302 303 307 305 308 309 308 310 313 311 319 332
325 324 324 324 324 324 324 324 324 325 324 324 322 321 320 321 311 307 318 325 326 328 311 309 306 308 307 307 309 306 303 303 307 307 305 307 306 306 305 306 307 311 316 324 333
324 324 324 324 324 324 324 324 324 324 323 323 322 322 321 318 304 305 325 326 326 326 313 312 311 308 304 305 306 306 302 303 303 305 308 306 306 309 306 304 307 307 312 323 329
323 323 323 323 324 324 323 324 324 323 322 322 321 321 321 314 294 310 325 326 328 318 310 309 307 304 303 300 304 300 303 304 304 304 305 305 308 305 307 308 310 311 314 321 325
321 321 322 322 323 323 323 324 323 322 321 321 321 321 314 303 302 314 324 324 318 311 307 306 304 304 301 303 302 301 301 301 303 303 304 305 304 305 306 310 309 309 314 320 323
320 320 321 321 321 322 323 323 322 322 321 320 321 321 309 297 309 315 315 311 310 309 307 308 305 306 303 302 301 302 302 302 301 301 302 303 303 302 307 310 308 306 309 315 320
319 319 320 320 321 321 322 323 321 321 320 320 321 314 304 302 312 314 313 311 310 309 305 308 308 304 304 301 302 301 298 300 300 301 299 302 298 298 306 304 304 304 307 309 314
319 319 319 319 320 320 322 322 321 320 320 321 321 312 299 308 314 310 310 309 310 310 309 308 308 305 304 303 300 298 299 294 299 300 301 300 296 302 306 303 303 305 306 307 310
318 318 318 319 319 320 320 321 320 319 319 320 312 307 298 312 306 310 311 306 308 308 308 308 308 303 302 298 295 296 292 294 294 300 299 298 297 302 302 302 302 304 305 305 306
318 318 318 318 319 319 320 319 320 319 318 315 310 300 301 300 307 308 309 309 306 306 304 304 302 298 298 296 288 291 292 294 294 295 297 297 297 300 301 302 303 304 305 306 305
317 318 318 318 319 320 318 314 305 304 307 298 299 298 299 306 309 306 308 306 306 303 296 301 295 292 295 297 297 297 294 293 295 296 296 295 296 299 302 302 302 303 304 305 306
317 318 318 318 319 319 315 303 303 305 296 305 303 301 304 307 299 303 307 301 300 295 299 295 291 297 299 298 295 295 293 293 294 296 295 295 295 298 300 301 302 303 304 305 306
317 317 317 318 318 315 311 306 314 309 295 297 302 299 302 304 299 300 304 302 298 295 296 293 295 299 297 295 293 293 292 293 292 294 295 293 292 295 299 300 302 303 304 305 306
317 317 317 318 312 313 307 312 316 314 289 291 295 300 303 303 297 305 305 301 297 294 296 295 296 295 294 293 294 290 295 295 292 291 288 294 287 295 297 297 298 299 301 303 304
317 316 317 317 312 307 309 314 315 306 280 294 295 305 303 298 298 298 304 300 294 295 296 292 293 293 292 293 296 292 296 294 293 292 291 291 288 292 296 294 297 300 302 303 304
316 316 316 314 314 312 312 315 310 289 280 290 295 295 295 297 296 298 298 301 300 295 295 294 296 297 296 295 296 296 294 293 293 291 284 290 289 290 294 295 298 300 300 300 302
316 316 315 315 307 314 315 307 288 281 293 289 290 294 293 292 293 295 293 292 290 287 287 291 291 294 296 292 295 295 291 285 283 283 282 289 288 291 297 298 297 298 299 301 303
316 315 314 314 313 313 311 295 280 288 289 294 293 293 290 292 292 293 292 289 294 292 289 286 284 291 294 294 291 292 292 286 280 281 284 286 284 290 298 300 297 298 298 302 303
316 314 312 311 312 311 300 284 285 290 293 292 292 288 289 291 292 292 291 291 293 294 288 287 287 294 294 295 295 291 289 294 286 282 284 287 290 295 298 297 297 297 298 301 303
310 309 307 311 313 307 294 287 290 297 296 295 288 291 287 289 289 290 290 294 293 296 297 292 286 292 292 295 295 293 295 286 288 283 280 285 287 289 293 295 297 297 298 300 302
302 302 308 312 309 298 285 289 293 298 299 294 292 290 290 289 290 289 290 294 296 295 296 294 290 288 291 289 289 290 289 290 290 288 283 281 286 295 296 297 297 298 301 302 302
299 288 304 309 292 292 288 293 296 295 299 297 297 295 292 292 290 290 289 293 298 297 291 294 292 286 287 293 295 294 290 291 286 283 286 286 287 295 296 297 298 300 301 302 302
292 292 302 305 285 285 292 292 296 295 296 296 295 297 296 292 289 292 293 298 298 297 293 294 291 285 285 289 293 289 291 292 292 291 286 283 286 297 296 295 298 299 300 299 300
288 285 289 296 291 290 289 290 290 298 297 298 296 298 295 292 295 292 292 295 298 298 298 296 291 287 283 287 291 287 289 291 290 286 286 287 289 293 295 296 297 299 300 300 299
286 285 286 284 285 291 292 291 289 290 297 298 295 296 294 290 291 291 294 294 296 296 296 294 286 289 290 293 293 290 289 290 287 289 286 289 289 293 296 297 299 301 300 300 299
285 285 287 289 291 290 291 288 289 292 293 293 293 296 297 293 293 291 294 293 292 295 293 295 286 289 286 290 291 287 291 291 290 290 290 290 290 297 299 300 299 300 301 300 299
291 290 287 286 287 288 288 290 291 295 296 298 297 296 296 297 300 300 300 299 298 294 292 290 286 286 283 289 288 282 287 290 290 291 291 287 292 297 296 296 298 300 301 300 301
Wind_Speed
22 19 15 16 15 14 14 12 12 10 8 7 4 2 1 1 4 3 10 6 2 6 5 4 3 2 5 3 3 3 6 10 9 10 10 12 9 4 2 6 4 6 3 4 16
20 20 17 16 15 14 13 12 10 10 9 7 7 4 2 2 1 8 6 7 8 7 8 9 7 4 4 4 4 6 8 11 7 6 11 14 8 10 7 7 7 8 7 7 14
18 19 19 17 16 15 12 10 10 9 8 8 9 8 6 4 2 9 8 11 7 9 8 8 7 9 6 2 5 5 9 7 5 7 5 12 8 8 7 7 6 11 13 13 13
17 17 17 18 16 15 14 12 11 10 9 9 8 9 8 6 7 2 1 10 8 9 7 7 8 10 9 8 2 3 1 4 5 5 6 10 7 8 10 6 4 6 12 14 16
17 16 17 16 15 15 14 12 13 11 10 10 8 9 8 8 6 2 2 6 6 6 11 12 12 11 10 10 6 8 5 1 7 6 2 6 8 4 9 6 5 4 8 13 14
17 16 16 16 15 13 13 13 12 11 10 9 9 7 8 11 3 2 5 6 7 10 12 12 7 8 9 6 13 5 8 7 4 6 4 6 4 2 10 7 9 7 9 11 14
18 14 14 15 14 14 13 13 12 9 9 9 8 6 6 6 3 4 7 5 5 8 7 5 3 6 4 6 1 7 7 6 7 6 3 3 5 10 5 6 10 10 11 11 13
18 17 16 16 16 14 13 13 10 9 8 8 6 6 6 2 2 6 6 5 5 4 1 2 0 3 2 6 5 7 7 9 9 8 5 6 11 15 10 8 11 12 11 11 12
18 19 19 17 17 15 14 14 11 8 6 7 6 8 6 3 4 6 6 7 7 4 4 5 1 3 4 10 6 8 8 12 6 8 4 10 8 7 6 8 10 10 11 11 11
21 21 22 21 18 17 16 12 10 11 6 4 1 6 5 5 7 5 3 9 4 9 7 5 4 6 9 12 12 11 11 8 10 7 6 9 12 5 6 9 10 10 10 11 12
23 25 23 21 23 22 17 11 9 4 8 4 6 3 7 6 4 7 6 9 7 11 9 9 10 14 16 15 11 9 11 11 6 2 7 12 13 14 12 13 13 13 12 13 12
23 25 25 24 25 24 16 10 16 4 8 7 4 1 1 2 6 10 8 11 10 13 13 7 14 14 14 15 6 6 10 9 5 4 3 6 12 14 14 15 15 16 16 16 15
24 26 26 25 26 18 19 9 2 6 5 4 3 5 3 5 4 16 14 9 15 16 16 14 7 15 9 9 12 11 11 7 6 5 4 6 15 16 14 15 16 17 17 16 14
24 27 28 28 18 17 17 11 2 2 7 9 8 7 6 5 5 6 12 8 5 17 15 13 6 11 13 15 14 14 11 9 5 3 7 2 8 5 8 12 11 14 15 15 14
26 27 29 28 11 18 14 7 4 3 6 16 12 7 11 11 11 6 4 4 11 10 9 7 12 15 17 18 16 6 5 9 6 7 7 9 8 9 3 9 14 14 13 10 6
28 30 31 18 9 15 9 6 1 3 11 10 10 15 13 15 4 6 9 1 4 8 6 1 5 8 8 4 13 14 11 7 4 5 8 13 10 9 12 11 10 3 7 8 6
28 27 27 12 12 16 14 5 6 12 7 11 11 18 22 16 11 12 17 14 12 12 13 5 7 4 6 11 7 12 13 5 5 6 7 3 7 15 3 6 3 4 8 8 6
28 28 23 9 18 18 10 9 8 13 18 5 13 16 23 18 16 14 17 19 24 20 13 15 12 14 10 12 11 20 19 8 8 7 5 3 11 6 6 2 1 5 4 2 6
30 14 13 10 20 14 14 15 15 15 26 12 17 19 18 19 11 15 21 21 20 24 16 16 13 16 16 5 14 15 15 11 4 3 1 8 10 12 11 9 10 10 7 6 5
9 12 12 20 22 17 17 20 18 11 22 20 13 15 20 25 15 21 21 19 22 24 17 6 8 9 7 3 10 10 11 6 6 7 7 11 14 13 4 13 11 11 11 8 6
2 9 10 22 19 14 19 25 18 11 17 22 19 16 20 23 21 20 14 11 26 21 20 8 10 5 7 16 20 8 13 10 8 11 8 8 10 6 10 12 13 10 6 7 6
2 3 3 17 14 12 18 33 20 16 17 16 6 12 19 23 23 20 23 20 17 18 26 21 7 7 13 4 8 17 21 23 9 11 8 8 12 5 3 1 4 8 8 7 7
3 1 2 12 13 18 12 19 15 20 20 16 12 15 11 21 14 22 15 13 10 19 18 15 6 4 2 4 8 9 16 17 18 0 10 9 14 4 2 3 2 8 9 7 6
2 4 3 2 1 18 13 21 15 12 19 14 11 12 14 18 18 18 19 4 8 17 11 14 4 16 18 14 8 10 16 17 16 10 17 12 21 14 6 7 7 7 8 8 8
1 1 1 8 5 13 18 15 15 12 15 17 15 19 17 13 18 18 18 6 6 4 9 12 10 11 20 8 4 11 16 21 19 22 20 24 23 25 13 11 10 9 9 11 11
2 1 2 4 15 17 20 13 26 20 18 23 18 21 21 17 17 10 14 12 9 8 14 8 3 12 6 14 11 4 15 23 26 26 25 27 24 15 9 10 13 10 11 12 13
1 1 4 3 8 12 16 23 26 22 15 18 22 17 19 19 12 7 9 10 9 13 14 11 7 4 12 7 6 7 29 18 20 25 24 25 37 12 12 6 9 12 14 13 12
Wind_Direction
172 187 201 199 201 198 195 197 187 194 184 184 200 178 174 60 175 198 232 217 225 172 218 132 208 223 225 223 240 291 226 193 182 180 141 153 172 169 65 146 185 159 28 49 128
181 181 187 196 192 193 187 189 188 186 175 182 166 168 164 267 332 262 233 222 214 188 205 180 193 186 208 221 207 226 228 190 156 156 158 165 196 163 185 164 180 168 119 140 141
184 176 181 187 190 182 178 181 180 181 168 164 164 161 155 182 226 241 195 209 194 203 247 230 214 194 228 336 198 179 219 123 147 117 153 161 183 175 209 194 188 193 165 161 159
183 180 177 174 180 175 175 179 175 175 173 162 180 156 153 192 216 82 311 184 171 195 231 184 194 202 225 205 161 176 258 155 144 136 136 169 183 196 218 82 37 129 148 168 177
183 179 176 169 173 164 168 179 173 180 176 162 182 168 171 209 256 42 99 132 156 190 199 201 188 202 223 209 182 232 136 158 130 141 155 138 187 218 213 162 120 125 164 178 192
186 180 172 166 168 156 165 171 177 172 178 168 188 185 218 219 85 119 151 150 176 195 208 212 211 205 234 214 212 137 176 136 146 142 133 186 169 253 213 170 195 195 196 200 202
181 186 166 168 162 156 170 159 167 170 174 170 197 203 237 194 105 155 177 180 176 203 189 239 246 195 166 165 57 162 144 165 172 173 132 208 204 224 200 168 201 213 231 221 214
176 178 168 170 160 158 160 148 153 158 173 166 188 221 234 53 131 170 171 136 163 165 190 107 156 117 274 111 141 182 205 193 162 181 146 208 235 213 207 208 229 229 220 220 223
177 171 167 168 160 150 146 140 149 146 163 156 169 244 215 135 168 177 181 160 138 120 89 112 135 135 158 182 169 205 211 215 164 210 154 211 246 203 163 224 235 241 239 232 230
177 172 167 165 152 144 135 130 131 136 150 196 274 215 167 207 144 157 155 164 141 138 123 162 178 194 213 206 200 196 219 206 207 179 220 207 245 203 193 230 234 237 236 235 233
174 172 165 159 148 148 134 148 147 156 198 195 196 259 140 111 147 180 169 151 140 176 168 189 200 207 204 219 252 243 214 205 199 125 222 229 245 253 246 219 250 247 243 246 240
182 171 161 160 149 155 166 189 175 134 169 221 333 16 128 239 152 174 194 173 167 184 179 168 217 207 222 222 213 195 214 214 121 149 248 251 258 259 256 247 240 247 245 236 240
184 169 161 160 152 162 187 192 22 188 141 178 204 211 166 198 200 178 187 184 187 188 192 199 184 216 189 191 206 223 229 207 277 159 225 281 266 240 241 245 238 237 251 257 245
176 170 161 153 157 170 194 178 223 195 154 183 205 223 159 205 212 155 203 184 204 199 198 226 131 178 193 209 205 220 224 246 179 235 260 260 281 203 213 231 224 237 240 245 243
177 173 165 162 136 176 170 171 204 233 196 163 160 142 159 186 126 180 144 179 183 164 186 173 169 177 197 202 199 220 163 212 216 243 303 219 268 253 108 254 247 232 231 220 244
169 175 163 177 141 153 145 152 207 153 222 168 149 175 163 196 134 125 173 60 45 168 243 238 350 207 207 98 195 132 125 132 180 233 250 242 228 252 234 225 245 203 178 163 172
176 174 167 170 156 143 134 156 149 204 135 176 185 178 181 180 159 175 182 188 178 181 195 160 186 155 163 122 153 180 170 181 217 206 245 16 218 255 263 216 232 214 172 165 161
177 173 178 177 141 146 160 171 184 192 200 140 159 170 191 162 192 182 175 195 213 208 180 198 196 184 182 206 173 195 190 190 199 206 207 134 233 244 237 293 180 200 221 245 176
167 176 174 164 146 157 163 185 204 192 196 156 149 165 189 185 178 181 198 205 200 203 211 197 222 157 180 179 161 198 221 240 98 55 239 207 245 272 225 230 221 216 208 227 198
193 181 170 151 148 177 181 207 204 175 179 167 172 182 184 184 194 190 190 216 211 207 220 176 191 195 165 166 236 213 171 175 218 191 230 241 237 250 180 223 214 217 217 221 184
249 185 163 155 154 183 189 206 195 190 174 182 203 186 192 180 197 192 208 206 197 195 205 223 222 141 159 210 187 179 194 220 225 226 220 249 245 292 246 211 222 207 177 185 183
25 94 283 149 162 189 201 200 203 180 198 200 252 180 187 181 192 190 218 200 207 186 193 208 215 174 200 124 279 234 215 205 202 211 238 267 256 111 82 137 234 176 170 157 164
87 110 314 178 166 188 188 198 221 180 191 194 204 197 191 181 193 212 206 216 194 187 189 177 180 140 224 250 210 227 230 233 231 213 199 208 245 106 111 202 181 185 170 163 176
57 137 309 202 128 180 171 189 200 225 194 192 185 196 174 191 208 195 213 148 186 207 205 168 134 210 215 227 162 202 224 222 237 227 238 226 250 218 194 217 195 188 176 172 180
344 283 243 168 175 183 184 180 175 179 212 202 204 206 189 196 197 219 202 136 182 193 181 189 208 213 241 259 306 195 200 212 211 224 221 238 237 248 236 205 208 199 189 190 191
268 358 256 208 151 175 184 189 193 191 176 198 206 205 210 217 203 182 195 177 176 178 191 205 241 216 251 238 228 261 224 207 212 221 226 239 247 247 267 224 210 200 202 206 204
126 199 286 78 162 172 194 195 203 193 202 205 201 192 213 213 204 227 183 187 159 165 186 164 139 136 240 156 97 288 227 220 224 224 221 230 242 235 238 193 214 203 205 209 207